Regional Weather Roundup
Issued by NWS

Home | Current Version | Previous Version | Graphics & Text | Print | Product List | Glossary On
Versions: 1 2 3 4 5 6 7 8 9 10 11 12 13 14 15 16 17 18 19 20 21 22 23 24 25 26 27 28 29 30 31 32 33 34 35 36 37 38 39 40 41 42 43 44 45 46 47 48 49 50
000
ASUS45 KCYS 182010
RWRWY

WYOMING REGIONAL WEATHER ROUNDUP
NATIONAL WEATHER SERVICE CHEYENNE WY
200 PM MDT FRI AUG 18 2017

NOTE:  "FAIR" INDICATES FEW OR NO CLOUDS BELOW 12,000 FEET
WITH NO SIGNIFICANT WEATHER AND/OR OBSTRUCTIONS TO VISIBILITY.

WYZ001-182100-
YELLOWSTONE NATIONAL PARK

CITY           SKY/WX    TMP DP  RH WIND       PRES   REMARKS
LK YELLOWSTONE   N/A     71  27  19 VRB6G18   30.33F
W YELLOWSTONE  NOT AVBL

$$
WYZ002>013-054>058-071-098>099-182100-
NORTHERN WYOMING

CITY           SKY/WX    TMP DP  RH WIND       PRES   REMARKS
JACKSON        FAIR      73  32  21 S7        30.26F
CODY           FAIR      84  37  18 VRB3      30.09F
GREYBULL       FAIR      87  31  13 SE6       30.02F
WORLAND        FAIR      88  31  13 NW8       30.04F
SHERIDAN       FAIR      90  37  15 N8        30.02F
BUFFALO        FAIR      86  30  13 MISG      30.10F
GILLETTE       FAIR      86  29  12 W16       30.06F
HULETT         FAIR      82  36  18 N9G18     30.08F
NEWCASTLE      FAIR      82  30  15 NW16      30.09S

$$
WYZ014>020-022>026-101>103-182100-
CENTRAL WYOMING

CITY           SKY/WX    TMP DP  RH WIND       PRES   REMARKS
BIG PINEY      FAIR      79  29  16 SW9       30.28F
PINEDALE       FAIR      75  28  17 W8        30.30F
DUBOIS         FAIR      73  23  15 W23       30.25F
LANDER           N/A    N/A N/A N/A MISG      30.13F
RIVERTON       FAIR      82  26  13 VRB7      30.15F
CASPER         FAIR      82  35  18 S5G20     30.15F
DOUGLAS        FAIR      84  35  17 NW14      30.14F

$$
WYZ021-027>030-104>119-182100-
SOUTHERN WYOMING

CITY           SKY/WX    TMP DP  RH WIND       PRES   REMARKS
EVANSTON       FAIR      81  32  17 SW18G24   30.31F
KEMMERER         N/A    N/A N/A N/A W23G31    30.32F
FORT BRIDGER   FAIR      83  27  12 W18G25    30.33S
ROCK SPRINGS   FAIR      80  29  15 W9G17     30.28F
RAWLINS        FAIR      81  29  15 W21G26    30.27F
SARATOGA       FAIR      79  30  17 W10G24    30.31S
LARAMIE        FAIR      76  34  21 W13       30.29F
CHEYENNE       FAIR      83  37  19 W7        30.22F
TORRINGTON     FAIR      87  31  13 NE5       30.08F
PINE BLUFFS    FAIR      81  41  24 SE3       30.18F

$$



USA.gov is the U.S. government's official web portal to all federal, state and local government web resources and services.